DW9750 Weather Reports


time (UTC)temp
F
wind
direction
speed
knots
gust
knots
rain 1hr
in
rain 24hr
in
rain mn
in
humidity
%
barometer
mb
20260904123052 75 130 0.9 4.3 0.00 0.00 0.00 88 1011.0
20260904121551 75 98 1.7 4.3 0.00 0.00 0.00 87 1010.8
20260904120048 76 99 2.6 4.3 0.00 0.00 0.00 86 1010.7
20260904114547 76 118 0.0 2.6 0.00 0.00 0.00 86 1010.6
20260904113046 76 151 0.0 1.7 0.00 0.00 0.00 86 1010.5
20260904111545 76 96 0.9 2.6 0.00 0.00 0.00 85 1010.5
20260904110044 77 182 0.0 2.6 0.00 0.00 0.00 84 1010.4
20260904104543 77 198 0.0 3.5 0.00 0.00 0.00 84 1010.5
20260904103050 77 175 0.0 3.5 0.00 0.00 0.00 84 1010.4
20260904101542 77 203 0.9 4.3 0.00 0.00 0.00 84 1010.5
20260904100042 77 149 0.9 5.2 0.00 0.00 0.00 84 1010.4
20260904094544 77 189 0.0 3.5 0.00 0.00 0.00 85 1010.4
20260904093043 76 159 0.0 0.0 0.00 0.00 0.00 85 1010.3
20260904091542 76 172 0.0 3.5 0.00 0.00 0.00 85 1010.3
20260904090048 76 121 0.0 0.0 0.00 0.00 0.00 85 1010.4
20260904084539 76 121 0.0 1.7 0.00 0.00 0.00 85 1010.3
20260904083038 76 170 0.0 3.5 0.00 0.00 0.00 84 1010.3
20260904081539 77 131 0.0 0.9 0.00 0.00 0.00 83 1010.4
20260904080044 77 175 0.0 1.7 0.00 0.00 0.00 82 1010.6
20260904074532 78 160 0.9 4.3 0.00 0.00 0.00 82 1010.8
20260904073035 78 175 0.9 5.2 0.00 0.00 0.00 81 1010.9
20260904071529 78 120 0.9 3.5 0.00 0.00 0.00 81 1010.9
20260904070027 78 147 0.9 4.3 0.00 0.00 0.00 80 1010.9
20260904064526 79 151 0.9 5.2 0.00 0.00 0.00 79 1011.0
20260904063022 79 248 0.9 2.6 0.00 0.00 0.00 78 1011.1
20260904061524 79 332 0.9 7.0 0.00 0.00 0.00 76 1011.1
20260904060017 80 196 0.9 3.5 0.00 0.00 0.00 74 1011.1
20260904054514 80 133 1.7 6.1 0.00 0.00 0.00 73 1011.0
20260904053012 81 170 2.6 7.8 0.00 0.00 0.00 71 1010.8
20260904051524 81 146 1.7 6.1 0.00 0.00 0.00 68 1010.7
20260904050008 81 120 1.7 5.2 0.00 0.00 0.00 69 1010.6
20260904044508 82 102 0.9 4.3 0.00 0.00 0.00 68 1010.4
20260904043009 82 99 2.6 7.0 0.00 0.00 0.00 67 1010.3
20260904041510 83 106 3.5 7.8 0.00 0.00 0.00 66 1010.5
20260904040006 83 94 4.3 7.8 0.00 0.00 0.00 65 1010.2
20260904034506 83 103 4.3 11.3 0.00 0.00 0.00 64 1010.1
20260904033003 83 94 1.7 6.1 0.00 0.00 0.00 63 1010.1
20260904031503 84 124 3.5 7.0 0.00 0.00 0.00 63 1010.0
20260904030103 84 126 2.6 6.1 0.00 0.00 0.00 63 1009.9
20260904024502 84 129 4.3 9.6 0.00 0.00 0.00 63 1009.6
20260904023001 85 90 3.5 8.7 0.00 0.00 0.00 63 1009.4
20260904021500 85 83 5.2 10.4 0.00 0.00 0.00 62 1009.0
20260904020059 86 123 3.5 15.6 0.00 0.00 0.00 61 1008.9
20260904014621 87 109 4.3 10.4 0.00 0.00 0.00 58 1008.8
20260904013059 88 75 6.1 13.9 0.00 0.00 0.00 56 1008.5
20260904011607 90 83 2.6 8.7 0.00 0.00 0.00 52 1008.1
20260904010057 91 75 2.6 7.0 0.00 0.00 0.00 49 1007.9
20260904004556 92 132 4.3 9.6 0.00 0.00 0.00 48 1007.7
20260904003055 92 122 3.5 9.6 0.00 0.00 0.00 48 1007.6
20260904001555 93 78 4.3 13.9 0.00 0.00 0.00 48 1007.4
20260904000058 94 97 6.1 13.0 0.00 0.00 0.00 46 1007.0
20260903234553 95 104 2.6 9.6 0.00 0.00 0.00 42 1007.1
20260903233053 97 98 1.7 5.2 0.00 0.00 0.00 40 1007.0
20260903231604 98 78 2.6 7.0 0.00 0.00 0.00 39 1007.1
20260903230051 98 126 3.5 7.8 0.00 0.00 0.00 40 1007.0
20260903224550 98 141 2.6 8.7 0.00 0.00 0.00 40 1006.9
20260903223102 98 58 1.7 7.0 0.00 0.00 0.00 38 1007.0
20260903221549 99 158 2.6 7.0 0.00 0.00 0.00 38 1006.9
20260903214546 98 68 3.5 9.6 0.00 0.00 0.00 38 1007.1
20260903213045 99 83 3.5 9.6 0.00 0.00 0.00 38 1007.2
20260903211643 99 72 3.5 8.7 0.00 0.00 0.00 38 1007.3
20260903210041 96 101 2.6 7.0 0.00 0.00 0.00 40 1007.5
20260903204539 97 73 1.7 9.6 0.00 0.00 0.00 41 1007.6
20260903203038 100 118 3.5 7.8 0.00 0.00 0.00 39 1007.9
20260903201536 99 156 1.7 5.2 0.00 0.00 0.00 38 1008.0
20260903200043 100 229 2.6 5.2 0.00 0.00 0.00 36 1008.3
20260903194543 99 301 3.5 7.0 0.00 0.00 0.00 36 1008.4
20260903193029 99 211 2.6 6.1 0.00 0.00 0.00 37 1008.7
20260903191526 98 249 3.5 8.7 0.00 0.00 0.00 38 1008.9
20260903190024 97 284 1.7 5.2 0.00 0.00 0.00 39 1009.3
20260903184519 96 239 2.6 7.0 0.00 0.00 0.00 41 1009.6
20260903183031 96 207 5.2 9.6 0.00 0.00 0.00 39 1009.8
20260903181512 95 49 1.7 7.8 0.00 0.00 0.00 43 1010.0
20260903180008 93 186 1.7 8.7 0.00 0.00 0.00 44 1010.3
20260903174506 93 241 2.6 10.4 0.00 0.00 0.00 49 1010.5
20260903173002 92 208 3.5 8.7 0.00 0.00 0.00 48 1010.8
20260903171605 92 176 3.5 10.4 0.00 0.00 0.00 51 1011.0
20260903170057 91 166 2.6 9.6 0.00 0.00 0.00 52 1011.2
20260903164557 89 193 3.5 8.7 0.00 0.00 0.00 54 1011.3
20260903163051 89 211 4.3 7.8 0.00 0.00 0.00 58 1011.3
20260903161601 88 278 1.7 7.8 0.00 0.00 0.00 62 1011.2
20260903160045 87 266 1.7 8.7 0.00 0.00 0.00 65 1011.3
20260903154543 86 224 2.6 7.0 0.00 0.00 0.00 70 1011.2
20260903153038 84 267 1.7 7.0 0.00 0.00 0.00 71 1011.3
20260903151541 84 227 1.7 6.1 0.00 0.00 0.00 73 1011.4
20260903150034 82 211 2.6 9.6 0.00 0.00 0.00 75 1011.5
20260903144532 81 176 2.6 9.6 0.00 0.00 0.00 77 1011.6
20260903143038 81 214 2.6 8.7 0.00 0.00 0.00 80 1011.6
20260903141530 79 213 2.6 7.0 0.00 0.00 0.00 82 1011.7
20260903140030 79 205 2.6 6.1 0.00 0.00 0.00 84 1011.8
20260903134530 79 245 1.7 5.2 0.00 0.00 0.00 84 1011.9
20260903133029 78 214 2.6 7.8 0.00 0.00 0.00 84 1011.8
20260903131528 78 213 0.9 5.2 0.00 0.00 0.00 85 1011.7
20260903130027 77 171 0.9 2.6 0.00 0.00 0.00 86 1011.8
20260903124546 77 161 0.9 3.5 0.00 0.00 0.00 86 1011.5